Location: ?ejeti?ky
(50.4060°N, 14.9016°E)
Time: 19:47:25
(UTC+00:00)

STARLINK-26 - Pass Details

Date: 07 June 2020
Orbit: 428 x 433 km, 53.0° (Epoch: 13 July)

Event Time Altitude Azimuth Distance (km) Brightness Sun altitude
Exits shadow 01:23:53 - 266° (W) 2,030 6.2 -10.1°
Reaches altitude 10° 01:25:07 10° 269° (W) 1,532 5.6 -10.0°
Maximum altitude 01:28:31 59° 350° (N) 503 3.7 -9.7°
Drops below altitude 10° 01:31:56 10° 72° (ENE) 1,538 6.8 -9.4°
Sets 01:34:05 0° 76° (ENE) 2,407 7.8 -9.2°
